Location: Palomar Mountain Lodge
(33.3110°N, 116.8495°W)
Time: 19:15:20
(UTC-07:00)

Cosmos 2058 - Pass Details

Date: 12 July 2018
Orbit: 563 x 584 km, 82.5° (Epoch: 23 September)

Event Time Altitude Azimuth Distance (km) Brightness Sun altitude
Exits shadow 20:32:01 - 164° (SSE) 2,673 5.9 -6.9°
Reaches altitude 10° 20:34:10 10° 155° (SSE) 1,847 5.0 -7.3°
Maximum altitude 20:37:48 32° 91° (E) 976 3.7 -7.9°
Drops below altitude 10° 20:41:27 10° 28° (NNE) 1,855 5.6 -8.6°
Sets 20:43:46 0° 18° (NNE) 2,755 6.6 -9.0°
